Radiation Dose at Monitoring Post of Fukushima Daini Nuclear Power Station
Date,Time,MP-1(microSv/h),MP-2(microSv/h),MP-3(microSv/h),MP-4(microSv/h),MP-5(microSv/h),MP-6(microSv/h),MP-7(microSv/h),Wind Direction,Wind Velocity(m/s),Rain
2017/01/28,00:00,0.386,0.231,0.401,0.370,0.336,0.192,0.165,west-northwest,6.0,No
2017/01/28,00:10,0.387,0.232,0.399,0.370,0.335,0.192,0.165,west-northwest,4.9,No
2017/01/28,00:20,0.386,0.231,0.399,0.370,0.335,0.192,0.164,west-northwest,4.8,No
2017/01/28,00:30,0.385,0.231,0.399,0.371,0.335,0.193,0.164,west-northwest,4.5,No
2017/01/28,00:40,0.386,0.232,0.400,0.370,0.336,0.193,0.165,west-northwest,6.4,No
2017/01/28,00:50,0.386,0.231,0.400,0.371,0.336,0.193,0.165,west-northwest,5.9,No
2017/01/28,01:00,0.387,0.231,0.399,0.370,0.337,0.192,0.166,west-northwest,6.1,No
2017/01/28,01:10,0.387,0.231,0.399,0.371,0.337,0.193,0.165,northwest,5.4,No
2017/01/28,01:20,0.387,0.232,0.401,0.368,0.335,0.193,0.165,west-northwest,5.2,No
2017/01/28,01:30,0.387,0.230,0.399,0.370,0.335,0.191,0.164,west-northwest,5.3,No
2017/01/28,01:40,0.387,0.231,0.400,0.370,0.336,0.193,0.165,west-northwest,4.0,No
2017/01/28,01:50,0.387,0.231,0.399,0.369,0.336,0.192,0.165,west-northwest,3.6,No
2017/01/28,02:00,0.386,0.230,0.399,0.369,0.336,0.193,0.164,northwest,2.4,No
2017/01/28,02:10,0.384,0.230,0.398,0.370,0.336,0.191,0.164,north-northwest,1.7,No
2017/01/28,02:20,0.388,0.231,0.398,0.370,0.336,0.192,0.164,northwest,4.4,No
2017/01/28,02:30,0.385,0.231,0.398,0.371,0.337,0.192,0.165,northwest,5.3,No
2017/01/28,02:40,0.385,0.231,0.400,0.369,0.336,0.193,0.164,northwest,4.8,No
2017/01/28,02:50,0.387,0.230,0.398,0.370,0.337,0.191,0.164,north-northwest,4.9,No
2017/01/28,03:00,0.388,0.230,0.398,0.370,0.336,0.191,0.164,north,2.8,No
2017/01/28,03:10,0.386,0.232,0.399,0.371,0.336,0.191,0.164,north-northeast,1.7,No
2017/01/28,03:20,0.386,0.234,0.398,0.372,0.337,0.192,0.164,east,0.6,No
2017/01/28,03:30,0.386,0.230,0.397,0.371,0.335,0.192,0.164,west,0.7,No
2017/01/28,03:40,0.386,0.231,0.396,0.371,0.335,0.191,0.165,-,CALM,No
2017/01/28,03:50,0.388,0.231,0.398,0.371,0.335,0.192,0.164,west-southwest,2.5,No
2017/01/28,04:00,0.386,0.230,0.399,0.370,0.336,0.192,0.164,northwest,1.0,No
2017/01/28,04:10,0.385,0.231,0.398,0.370,0.336,0.192,0.163,north,1.5,No
2017/01/28,04:20,0.387,0.230,0.397,0.371,0.333,0.192,0.163,southwest,2.0,No
2017/01/28,04:30,0.387,0.230,0.397,0.370,0.335,0.190,0.164,south-southeast,1.8,No
2017/01/28,04:40,0.386,0.231,0.398,0.369,0.336,0.191,0.165,south-southwest,1.2,No
2017/01/28,04:50,0.385,0.231,0.397,0.369,0.335,0.193,0.163,south-southwest,1.9,No
2017/01/28,05:00,0.385,0.231,0.399,0.369,0.335,0.192,0.164,west,0.8,No
2017/01/28,05:10,0.386,0.230,0.398,0.370,0.336,0.191,0.164,west-northwest,1.7,No
2017/01/28,05:20,0.386,0.230,0.400,0.369,0.335,0.192,0.164,west-northwest,2.7,No
2017/01/28,05:30,0.386,0.231,0.397,0.368,0.335,0.192,0.164,west-northwest,2.6,No
2017/01/28,05:40,0.386,0.229,0.396,0.370,0.336,0.192,0.164,northwest,3.7,No
2017/01/28,05:50,0.387,0.230,0.398,0.369,0.336,0.193,0.163,northwest,2.5,No
2017/01/28,06:00,0.387,0.231,0.399,0.371,0.334,0.192,0.164,northwest,3.6,No
2017/01/28,06:10,0.387,0.230,0.398,0.368,0.336,0.192,0.164,north-northwest,3.1,No
2017/01/28,06:20,0.386,0.230,0.398,0.370,0.335,0.191,0.164,northwest,2.5,No
2017/01/28,06:30,0.387,0.230,0.398,0.370,0.334,0.192,0.164,north-northwest,3.0,No
2017/01/28,06:40,0.385,0.229,0.398,0.369,0.336,0.191,0.164,north-northwest,3.8,No
2017/01/28,06:50,0.385,0.232,0.398,0.368,0.336,0.192,0.164,north-northwest,4.6,No
2017/01/28,07:00,0.387,0.230,0.397,0.370,0.334,0.191,0.164,north-northwest,4.7,No
2017/01/28,07:10,0.386,0.229,0.398,0.370,0.335,0.191,0.164,north-northwest,7.3,No
2017/01/28,07:20,0.386,0.230,0.399,0.370,0.335,0.191,0.163,northwest,6.7,No
2017/01/28,07:30,0.386,0.230,0.397,0.370,0.334,0.191,0.164,northwest,6.1,No
2017/01/28,07:40,0.387,0.229,0.399,0.370,0.334,0.191,0.164,north-northwest,6.3,No
2017/01/28,07:50,0.387,0.231,0.399,0.369,0.335,0.193,0.164,north-northwest,4.2,No
2017/01/28,08:00,0.386,0.230,0.399,0.367,0.336,0.191,0.165,north-northwest,4.7,No
2017/01/28,08:10,0.386,0.229,0.399,0.369,0.335,0.191,0.163,north-northwest,4.9,No
2017/01/28,08:20,0.387,0.230,0.397,0.371,0.335,0.192,0.163,northwest,6.7,No
2017/01/28,08:30,0.386,0.229,0.399,0.369,0.336,0.191,0.163,west-northwest,4.9,No
2017/01/28,08:40,0.384,0.230,0.399,0.370,0.334,0.190,0.164,west,6.5,No
2017/01/28,08:50,0.385,0.231,0.398,0.370,0.335,0.190,0.164,west-northwest,7.7,No
2017/01/28,09:00,0.387,0.230,0.399,0.368,0.335,0.190,0.164,northwest,8.5,No
2017/01/28,09:10,0.385,0.230,0.400,0.367,0.336,0.191,0.164,northwest,6.0,No
2017/01/28,09:20,0.386,0.231,0.400,0.370,0.336,0.191,0.164,northwest,6.1,No
2017/01/28,09:30,0.387,0.230,0.396,0.367,0.336,0.191,0.164,west-northwest,7.2,No
2017/01/28,09:40,0.386,0.230,0.398,0.370,0.337,0.192,0.162,west-northwest,6.2,No
2017/01/28,09:50,0.386,0.230,0.400,0.369,0.337,0.191,0.163,northwest,5.8,No
2017/01/28,10:00,0.385,0.230,0.397,0.368,0.337,0.192,0.163,west,6.6,No
2017/01/28,10:10,0.385,0.230,0.398,0.368,0.334,0.192,0.164,northwest,5.9,No
2017/01/28,10:20,0.385,0.229,0.401,0.366,0.337,0.192,0.164,northwest,6.8,No
2017/01/28,10:30,0.384,0.230,0.398,0.370,0.333,0.192,0.163,northwest,8.0,No
2017/01/28,10:40,0.386,0.231,0.399,0.366,0.337,0.192,0.165,northwest,8.4,No
2017/01/28,10:50,0.383,0.230,0.398,0.371,0.336,0.192,0.164,northwest,7.1,No
2017/01/28,11:00,0.384,0.229,0.400,0.368,0.334,0.193,0.163,west-northwest,7.5,No
2017/01/28,11:10,0.385,0.230,0.398,0.369,0.336,0.193,0.164,northwest,7.8,No
2017/01/28,11:20,0.385,0.230,0.399,0.368,0.335,0.192,0.165,west-northwest,8.5,No
2017/01/28,11:30,0.385,0.231,0.397,0.369,0.337,0.193,0.164,northwest,9.0,No
2017/01/28,11:40,0.385,0.231,0.396,0.369,0.335,0.193,0.163,north-northwest,8.9,No
2017/01/28,11:50,0.386,0.230,0.399,0.368,0.335,0.193,0.164,northwest,5.6,No
2017/01/28,12:00,0.387,0.229,0.396,0.371,0.337,0.192,0.164,northwest,6.4,No
2017/01/28,12:10,0.384,0.231,0.397,0.369,0.334,0.192,0.165,northwest,6.8,No
2017/01/28,12:20,0.386,0.230,0.398,0.371,0.335,0.192,0.164,west-northwest,8.1,No
2017/01/28,12:30,0.386,0.230,0.395,0.369,0.334,0.192,0.164,west-northwest,7.7,No
2017/01/28,12:40,0.385,0.231,0.397,0.370,0.336,0.192,0.164,west,7.5,No
2017/01/28,12:50,0.387,0.230,0.397,0.369,0.337,0.193,0.164,northwest,8.0,No
2017/01/28,13:00,0.386,0.230,0.398,0.370,0.335,0.191,0.163,northwest,9.2,No
2017/01/28,13:10,0.389,0.231,0.400,0.371,0.336,0.192,0.164,northwest,8.2,No
2017/01/28,13:20,0.385,0.231,0.397,0.370,0.336,0.192,0.164,west-northwest,10.0,No
2017/01/28,13:30,0.385,0.230,0.399,0.368,0.337,0.192,0.164,west-northwest,12.2,No
2017/01/28,13:40,0.386,0.231,0.398,0.371,0.335,0.192,0.163,northwest,12.1,No
2017/01/28,13:50,0.385,0.230,0.399,0.368,0.335,0.191,0.164,west-northwest,10.9,No
2017/01/28,14:00,0.386,0.232,0.397,0.369,0.339,0.192,0.164,west-northwest,7.2,No
2017/01/28,14:10,0.387,0.231,0.397,0.372,0.336,0.192,0.164,west-northwest,7.0,No
2017/01/28,14:20,0.386,0.230,0.400,0.370,0.335,0.191,0.163,west-northwest,7.0,No
2017/01/28,14:30,0.387,0.231,0.400,0.372,0.335,0.193,0.164,west-northwest,7.1,No
2017/01/28,14:40,0.387,0.231,0.400,0.371,0.337,0.192,0.165,northwest,7.2,No
2017/01/28,14:50,0.390,0.232,0.402,0.372,0.338,0.191,0.165,north-northwest,4.5,No
2017/01/28,15:00,0.388,0.230,0.400,0.373,0.339,0.191,0.164,north-northwest,5.0,No
2017/01/28,15:10,0.387,0.231,0.399,0.371,0.336,0.192,0.164,northwest,2.5,No
2017/01/28,15:20,0.389,0.232,0.400,0.373,0.337,0.192,0.165,west-northwest,3.4,No
2017/01/28,15:30,0.390,0.231,0.398,0.372,0.338,0.191,0.164,west-northwest,4.1,No
2017/01/28,15:40,0.386,0.230,0.397,0.368,0.338,0.191,0.164,northwest,2.8,No
2017/01/28,15:50,0.387,0.231,0.399,0.372,0.335,0.191,0.164,west-northwest,2.5,No
2017/01/28,16:00,0.388,0.230,0.400,0.371,0.336,0.192,0.164,north-northwest,1.4,No
2017/01/28,16:10,0.386,0.230,0.399,0.371,0.337,0.191,0.164,northwest,2.5,No
2017/01/28,16:20,0.388,0.231,0.400,0.371,0.334,0.192,0.164,northwest,2.2,No
2017/01/28,16:30,0.388,0.232,0.399,0.371,0.336,0.192,0.164,west-northwest,1.3,No
2017/01/28,16:40,0.388,0.230,0.398,0.370,0.338,0.191,0.165,west,4.5,No
2017/01/28,16:50,0.387,0.231,0.399,0.371,0.338,0.191,0.165,west-northwest,2.1,No
2017/01/28,17:00,0.387,0.231,0.400,0.374,0.336,0.192,0.165,west-northwest,4.2,No
2017/01/28,17:10,0.389,0.231,0.399,0.370,0.337,0.192,0.165,west-northwest,3.4,No
2017/01/28,17:20,0.388,0.232,0.399,0.371,0.337,0.192,0.165,west-northwest,3.7,No
2017/01/28,17:30,0.388,0.232,0.400,0.371,0.337,0.192,0.165,northwest,4.4,No
2017/01/28,17:40,0.388,0.231,0.399,0.371,0.335,0.192,0.164,northwest,4.8,No
2017/01/28,17:50,0.388,0.231,0.399,0.369,0.336,0.192,0.164,northwest,4.5,No
2017/01/28,18:00,0.387,0.231,0.400,0.369,0.336,0.191,0.164,northwest,3.9,No
2017/01/28,18:10,0.387,0.230,0.401,0.371,0.335,0.192,0.164,northwest,4.8,No
2017/01/28,18:20,0.388,0.232,0.399,0.372,0.334,0.192,0.163,northwest,6.5,No
2017/01/28,18:30,0.389,0.230,0.399,0.370,0.336,0.193,0.163,north-northwest,6.4,No
2017/01/28,18:40,0.388,0.231,0.398,0.371,0.337,0.193,0.165,north-northwest,8.0,No
2017/01/28,18:50,0.386,0.231,0.400,0.370,0.336,0.191,0.164,northwest,8.0,No
2017/01/28,19:00,0.388,0.231,0.401,0.372,0.336,0.191,0.164,northwest,9.6,No
2017/01/28,19:10,0.388,0.230,0.397,0.372,0.336,0.192,0.164,northwest,9.7,No
2017/01/28,19:20,0.387,0.231,0.399,0.372,0.337,0.192,0.164,northwest,9.7,No
2017/01/28,19:30,0.387,0.231,0.398,0.371,0.335,0.192,0.164,north-northwest,9.5,No
2017/01/28,19:40,0.389,0.232,0.398,0.370,0.336,0.191,0.164,northwest,9.0,No
2017/01/28,19:50,0.389,0.232,0.400,0.371,0.336,0.192,0.163,north-northwest,6.4,No
2017/01/28,20:00,0.387,0.231,0.401,0.371,0.336,0.192,0.164,northwest,5.0,No
2017/01/28,20:10,0.388,0.230,0.400,0.370,0.337,0.192,0.165,north-northwest,1.4,No
2017/01/28,20:20,0.388,0.231,0.400,0.371,0.335,0.192,0.165,north-northwest,2.2,No
2017/01/28,20:30,0.387,0.230,0.398,0.373,0.335,0.192,0.164,northwest,2.1,No
2017/01/28,20:40,0.387,0.230,0.400,0.372,0.335,0.192,0.163,northwest,3.9,No
2017/01/28,20:50,0.388,0.232,0.399,0.369,0.336,0.191,0.164,west-northwest,5.0,No
2017/01/28,21:00,0.388,0.231,0.399,0.370,0.335,0.193,0.164,west-northwest,4.5,No
2017/01/28,21:10,0.388,0.231,0.399,0.371,0.335,0.191,0.164,north-northwest,2.8,No
2017/01/28,21:20,0.388,0.230,0.399,0.371,0.335,0.191,0.165,north-northwest,2.5,No
2017/01/28,21:30,0.388,0.231,0.399,0.370,0.337,0.192,0.164,northwest,3.2,No
2017/01/28,21:40,0.388,0.231,0.399,0.371,0.335,0.191,0.164,northwest,3.3,No
2017/01/28,21:50,0.388,0.232,0.398,0.370,0.337,0.192,0.165,northwest,2.8,No
2017/01/28,22:00,0.387,0.231,0.399,0.371,0.336,0.191,0.164,northwest,2.1,No
2017/01/28,22:10,0.387,0.231,0.401,0.370,0.336,0.191,0.164,northwest,1.6,No
2017/01/28,22:20,0.387,0.231,0.398,0.371,0.336,0.192,0.164,north,0.9,No
2017/01/28,22:30,0.388,0.231,0.399,0.369,0.336,0.191,0.164,northeast,2.1,No
2017/01/28,22:40,0.387,0.231,0.400,0.369,0.335,0.192,0.165,north-northeast,3.5,No
2017/01/28,22:50,0.387,0.231,0.400,0.369,0.336,0.192,0.165,northeast,4.1,No
2017/01/28,23:00,0.388,0.232,0.399,0.371,0.336,0.191,0.165,north-northeast,4.6,No
2017/01/28,23:10,0.389,0.231,0.399,0.370,0.336,0.191,0.165,north-northeast,6.2,No
2017/01/28,23:20,0.388,0.230,0.398,0.372,0.335,0.192,0.164,north-northeast,6.4,No
2017/01/28,23:30,0.388,0.232,0.401,0.371,0.335,0.192,0.165,north,5.1,No
2017/01/28,23:40,0.387,0.231,0.398,0.370,0.336,0.191,0.164,north,5.6,No
2017/01/28,23:50,0.387,0.231,0.399,0.371,0.336,0.191,0.165,north,5.5,No
